FLOCK 4V-3 (46322 NORAD) Tracking and Keplerian Element Data

This shows tracking and keplerian element data for the satellite.

Feedback or suggestion? Click here.




ElementValue
Catalog46322
NameFLOCK 4V-3
Epoch Orbit1373
Epoch Day338.47265748
Epoch Year2020
RAAN49.9767
Inclination97.5105
Eccentricity0.0002271
Argument of Perigee343.9736
Mean Anonmoly16.1422
Mean Motion15.10995373
Decay Rate1.293E-05
L11 46322U 20061BC 20338.47265748 .00001293 00000-0 81234-4 0 9992
L22 46322 97.5105 49.9767 0002271 343.9736 16.1422 15.10995373 13738

Live tracking and technical data element details for FLOCK 4V-3 (NORAD 46322). FLOCK 4V-3 can be tracked NOW for your location showing map with azimuth and elevation plus other details from your city location.

Track the satellite on the map from your city or location and see movement details for azimuth, elevation, latitude, longitude, range, height, and movement on the map or in text.







IsCatalogInMostPopularTable: catalog: 46322, numindb: 14
Update: records affected: 1



GetName: 46322 FLOCK 4V-3

Hit Count: updated at: Sat, 05 Dec 2020 06:15:45 GMT